EW7824 Weather Reports


time (UTC)temp
C
wind
direction
speed
KPH
gust
KPH
rain 1hr
cm
rain 24hr
cm
rain mn
cm
humidity
%
barometer
mb
20260906194404 37 208 8.0 11.3 0.00 0.00 0.00 28 1013.1
20260906193903 38 115 6.4 12.9 0.00 0.00 0.00 28 1013.1
20260906193402 38 86 4.8 14.5 0.00 0.00 0.00 28 1013.3
20260906191904 38 77 4.8 9.7 0.00 0.00 0.00 30 1013.5
20260906191403 38 273 6.4 9.7 0.00 0.00 0.00 29 1013.6
20260906190403 37 279 6.4 11.3 0.00 0.00 0.00 30 1013.8
20260906184902 38 59 8.0 11.3 0.00 0.00 0.00 30 1013.9
20260906184403 38 78 3.2 9.7 0.00 0.00 0.00 29 1013.9
20260906183902 38 164 4.8 9.7 0.00 0.00 0.00 29 1014.0
20260906183403 38 194 6.4 20.9 0.00 0.00 0.00 28 1014.1
20260906181903 39 342 4.8 11.3 0.00 0.00 0.00 31 1014.4
20260906181403 38 162 1.6 3.2 0.00 0.00 0.00 33 1014.6
20260906180903 37 72 4.8 8.0 0.00 0.00 0.00 33 1014.6
20260906180402 37 181 3.2 9.7 0.00 0.00 0.00 32 1014.7
20260906174903 35 50 4.8 9.7 0.00 0.00 0.00 36 1015.1
20260906173402 37 231 3.2 11.3 0.00 0.00 0.00 32 1015.3
20260906171902 36 181 8.0 11.3 0.00 0.00 0.00 32 1015.6
20260906171403 36 282 8.0 9.7 0.00 0.00 0.00 33 1015.7
20260906170902 36 44 3.2 9.7 0.00 0.00 0.00 36 1015.8
20260906170402 36 10 6.4 16.1 0.00 0.00 0.00 34 1015.9
20260906164903 37 192 3.2 11.3 0.00 0.00 0.00 30 1015.9
20260906164403 37 77 1.6 8.0 0.00 0.00 0.00 33 1015.9
20260906163403 35 37 1.6 9.7 0.00 0.00 0.00 36 1016.1
20260906161903 35 259 1.6 11.3 0.00 0.00 0.00 38 1016.2
20260906161403 35 255 4.8 12.9 0.00 0.00 0.00 36 1016.1
20260906160902 35 239 3.2 8.0 0.00 0.00 0.00 41 1016.1
20260906160403 34 175 6.4 14.5 0.00 0.00 0.00 37 1016.0
20260906154903 35 47 3.2 8.0 0.00 0.00 0.00 41 1016.0
20260906154403 34 241 4.8 9.7 0.00 0.00 0.00 38 1016.0
20260906153903 34 240 3.2 11.3 0.00 0.00 0.00 39 1015.9
20260906153403 34 225 8.0 12.9 0.00 0.00 0.00 39 1015.9
20260906151902 33 134 3.2 8.0 0.00 0.00 0.00 40 1015.8
20260906151403 33 1 3.2 9.7 0.00 0.00 0.00 43 1015.8
20260906150903 33 246 4.8 9.7 0.00 0.00 0.00 42 1015.7
20260906150403 33 285 3.2 9.7 0.00 0.00 0.00 42 1015.8
20260906144903 32 200 0.0 1.6 0.00 0.00 0.00 46 1015.7
20260906144403 32 203 1.6 1.6 0.00 0.00 0.00 48 1015.7
20260906143902 31 257 1.6 3.2 0.00 0.00 0.00 47 1015.8
20260906143403 31 232 1.6 8.0 0.00 0.00 0.00 49 1015.7
20260906141902 30 180 0.0 3.2 0.00 0.00 0.00 52 1015.8
20260906141403 29 169 3.2 3.2 0.00 0.00 0.00 54 1015.7
20260906140903 29 252 0.0 3.2 0.00 0.00 0.00 54 1015.7
20260906140402 28 236 3.2 9.7 0.00 0.00 0.00 56 1015.7
20260906134903 27 246 3.2 3.2 0.00 0.00 0.00 64 1015.7
20260906134403 26 180 1.6 3.2 0.00 0.00 0.00 66 1015.7
20260906133903 26 180 0.0 0.0 0.00 0.00 0.00 68 1015.7
20260906133403 25 180 0.0 0.0 0.00 0.00 0.00 72 1015.6
20260906131403 23 180 0.0 0.0 0.00 0.00 0.00 79 1015.4
20260906130902 23 180 0.0 0.0 0.00 0.00 0.00 79 1015.3
20260906130402 23 180 0.0 0.0 0.00 0.00 0.00 79 1015.3
20260906124903 22 180 0.0 0.0 0.00 0.00 0.00 78 1015.0
20260906124403 22 180 0.0 0.0 0.00 0.00 0.00 78 1014.9
20260906123902 22 180 0.0 0.0 0.00 0.00 0.00 77 1014.8
20260906121902 22 180 0.0 0.0 0.00 0.00 0.00 77 1014.5
20260906121403 22 180 0.0 0.0 0.00 0.00 0.00 76 1014.4
20260906120903 22 180 0.0 0.0 0.00 0.00 0.00 76 1014.3
20260906120403 22 180 0.0 0.0 0.00 0.00 0.00 76 1014.3
20260906114903 22 180 0.0 1.6 0.00 0.00 0.00 75 1014.3
20260906113904 23 180 0.0 0.0 0.00 0.00 0.00 75 1014.1
20260906111903 23 180 0.0 0.0 0.00 0.00 0.00 74 1014.0
20260906111404 23 180 0.0 0.0 0.00 0.00 0.00 73 1013.9
20260906110903 23 180 0.0 0.0 0.00 0.00 0.00 73 1013.9
20260906104903 23 180 0.0 0.0 0.00 0.00 0.00 72 1013.9
20260906104403 23 180 0.0 0.0 0.00 0.00 0.00 72 1013.8
20260906103903 23 180 0.0 1.6 0.00 0.00 0.00 71 1013.8
20260906101903 23 180 0.0 0.0 0.00 0.00 0.00 71 1013.9
20260906101404 23 180 0.0 1.6 0.00 0.00 0.00 70 1013.9
20260906100903 23 180 0.0 1.6 0.00 0.00 0.00 70 1013.8
20260906100404 24 180 0.0 1.6 0.00 0.00 0.00 71 1013.8
20260906094903 24 180 0.0 0.0 0.00 0.00 0.00 70 1013.8
20260906093403 24 180 0.0 0.0 0.00 0.00 0.00 69 1013.8
20260906091903 24 180 0.0 0.0 0.00 0.00 0.00 67 1013.6
20260906091404 25 180 0.0 0.0 0.00 0.00 0.00 67 1013.7
20260906090903 25 180 0.0 0.0 0.00 0.00 0.00 66 1013.6
20260906090403 25 180 0.0 0.0 0.00 0.00 0.00 66 1013.6
20260906084903 25 180 0.0 0.0 0.00 0.00 0.00 66 1013.6
20260906084403 25 180 0.0 0.0 0.00 0.00 0.00 65 1013.6
20260906083903 25 180 0.0 0.0 0.00 0.00 0.00 65 1013.5
20260906083403 25 180 0.0 0.0 0.00 0.00 0.00 65 1013.4
20260906081404 25 180 0.0 0.0 0.00 0.00 0.00 64 1013.5
20260906080903 25 180 0.0 0.0 0.00 0.00 0.00 63 1013.5
20260906074404 26 180 0.0 0.0 0.00 0.00 0.00 62 1013.5
20260906073903 26 180 0.0 0.0 0.00 0.00 0.00 61 1013.5
20260906073403 26 180 0.0 1.6 0.00 0.00 0.00 60 1013.4
20260906071903 26 180 0.0 0.0 0.00 0.00 0.00 60 1013.3
20260906071404 26 180 0.0 1.6 0.00 0.00 0.00 60 1013.3
20260906070903 26 180 0.0 1.6 0.00 0.00 0.00 59 1013.3
20260906070403 26 180 0.0 0.0 0.00 0.00 0.00 59 1013.4
20260906064903 26 179 0.0 0.0 0.00 0.00 0.00 58 1013.4
20260906064404 26 179 0.0 0.0 0.00 0.00 0.00 58 1013.4
20260906063903 27 179 0.0 0.0 0.00 0.00 0.00 57 1013.4
20260906061404 27 179 0.0 1.6 0.00 0.00 0.00 56 1013.4
20260906060904 27 179 0.0 0.0 0.00 0.00 0.00 56 1013.4
20260906054904 27 179 0.0 0.0 0.00 0.00 0.00 54 1013.4
20260906054404 27 179 0.0 0.0 0.00 0.00 0.00 54 1013.5
20260906053904 28 179 0.0 0.0 0.00 0.00 0.00 53 1013.4
20260906053403 28 179 0.0 0.0 0.00 0.00 0.00 53 1013.4
20260906051904 28 182 0.0 1.6 0.00 0.00 0.00 52 1013.5
20260906051404 28 184 0.0 1.6 0.00 0.00 0.00 52 1013.5
20260906050404 28 132 0.0 1.6 0.00 0.00 0.00 50 1013.4
20260906044904 29 132 0.0 1.6 0.00 0.00 0.00 49 1013.3
20260906043904 29 132 0.0 1.6 0.00 0.00 0.00 48 1013.3
20260906043403 30 140 0.0 3.2 0.00 0.00 0.00 47 1013.2
20260906041904 30 192 0.0 3.2 0.00 0.00 0.00 47 1013.2
20260906041404 30 205 1.6 3.2 0.00 0.00 0.00 46 1013.3
20260906040903 30 142 1.6 3.2 0.00 0.00 0.00 44 1013.4
20260906040404 30 176 3.2 8.0 0.00 0.00 0.00 44 1013.4
20260906034906 31 153 3.2 8.0 0.00 0.00 0.00 43 1013.1
20260906033903 31 162 1.6 9.7 0.00 0.00 0.00 44 1013.1
20260906031904 31 132 1.6 8.0 0.00 0.00 0.00 43 1013.0
20260906031404 31 145 1.6 3.2 0.00 0.00 0.00 43 1012.9
20260906030903 31 126 0.0 3.2 0.00 0.00 0.00 43 1012.9
20260906030404 31 141 3.2 11.3 0.00 0.00 0.00 43 1012.9
20260906024404 31 154 1.6 8.0 0.00 0.00 0.00 42 1012.8
20260906021904 32 152 1.6 8.0 0.00 0.00 0.00 42 1012.2
20260906021403 32 162 1.6 8.0 0.00 0.00 0.00 42 1012.2
20260906020904 32 155 3.2 8.0 0.00 0.00 0.00 41 1012.1
20260906014404 32 136 0.0 1.6 0.00 0.00 0.00 40 1012.0
20260906013904 32 132 0.0 1.6 0.00 0.00 0.00 42 1012.0
20260906011903 33 136 0.0 1.6 0.00 0.00 0.00 39 1011.7
20260906010904 33 136 0.0 1.6 0.00 0.00 0.00 37 1011.6
20260906010404 33 136 0.0 3.2 0.00 0.00 0.00 38 1011.7
20260906003903 34 135 3.2 9.7 0.00 0.00 0.00 35 1011.4
20260906003403 34 187 3.2 11.3 0.00 0.00 0.00 35 1011.3
20260906001404 35 148 1.6 3.2 0.00 0.00 0.00 35 1011.4
20260906000904 35 132 1.6 8.0 0.00 0.00 0.00 34 1011.5
20260906000403 35 145 1.6 12.9 0.00 0.00 0.00 33 1011.6
20260905233402 36 146 3.2 14.5 0.00 0.00 0.00 32 1011.5
20260905231902 36 136 3.2 9.7 0.00 0.00 0.00 31 1011.6
20260905231402 36 134 8.0 14.5 0.00 0.00 0.00 30 1011.6
20260905224402 37 77 8.0 14.5 0.00 0.00 0.00 29 1011.5
20260905223902 37 215 8.0 14.5 0.00 0.00 0.00 29 1011.5
20260905223403 37 145 4.8 16.1 0.00 0.00 0.00 29 1011.6
20260905221902 37 228 6.4 16.1 0.00 0.00 0.00 29 1011.5
20260905220902 37 122 4.8 9.7 0.00 0.00 0.00 29 1011.4
20260905220403 37 144 6.4 20.9 0.00 0.00 0.00 28 1011.4
20260905214904 38 122 9.7 20.9 0.00 0.00 0.00 28 1011.3
20260905214402 38 99 4.8 12.9 0.00 0.00 0.00 28 1011.3
20260905213903 38 64 8.0 16.1 0.00 0.00 0.00 29 1011.3
20260905213403 38 105 6.4 16.1 0.00 0.00 0.00 28 1011.4
20260905211902 38 135 8.0 16.1 0.00 0.00 0.00 28 1011.5
20260905211402 38 167 6.4 12.9 0.00 0.00 0.00 30 1011.5
20260905204902 37 82 3.2 11.3 0.00 0.00 0.00 32 1011.9
20260905204403 37 42 3.2 8.0 0.00 0.00 0.00 32 1012.0
20260905203902 37 43 4.8 11.3 0.00 0.00 0.00 31 1012.0
20260905203402 38 153 8.0 16.1 0.00 0.00 0.00 32 1012.2
20260905201902 38 101 4.8 12.9 0.00 0.00 0.00 30 1012.5
20260905201403 38 212 8.0 11.3 0.00 0.00 0.00 31 1012.5
20260905200403 38 235 4.8 9.7 0.00 0.00 0.00 31 1012.6